Location: Mentone
(34.5413°N, 85.5351°W)
Time: 10:51:55
(UTC-05:00)

UOSAT-12 - Visible Passes

Search period start: 27 May 2015 00:00
Search period end: 06 June 2015 00:00
Orbit: 597 x 658 km, 64.6° (Epoch: 26 May)

Date Brightness Start Highest point End Pass type
(mag) Time Alt. Az. Time Alt. Az. Time Alt. Az.
27 May 7.7 04:03:56 18° S 04:07:09 53° ESE 04:11:45 10° NE visible
28 May 9.7 02:46:32 10° ESE 02:47:33 11° ESE 02:49:07 10° E visible
28 May 7.3 04:23:51 18° SW 04:27:13 64° WNW 04:31:55 10° NNE visible
29 May 8.6 03:06:23 25° SE 03:07:25 27° ESE 03:11:25 10° NE visible
29 May 8.4 04:43:42 11° WSW 04:47:30 29° NW 04:51:35 10° N visible
30 May 7.3 03:26:10 46° S 03:27:23 66° ESE 03:32:03 10° NE visible
31 May 9.6 02:08:35 14° E 02:08:35 14° E 02:10:18 10° ENE visible
31 May 7.5 03:45:53 35° WSW 03:47:29 53° WNW 03:52:07 10° NNE visible
01 Jun 8.5 02:28:15 32° E 02:28:15 32° E 02:31:52 10° NE visible
01 Jun 8.7 04:05:33 17° W 04:07:50 24° NW 04:11:39 10° N visible
02 Jun 7.2 02:47:51 77° ENE 02:47:51 77° ENE 02:52:20 10° NNE visible
02 Jun 9.4 04:26:25 10° WNW 04:28:25 12° NW 04:30:12 10° NNW visible
03 Jun 9.7 01:30:07 13° ENE 01:30:07 13° ENE 01:31:05 10° ENE visible
03 Jun 7.8 03:07:25 42° WNW 03:07:46 43° NW 03:12:16 10° NNE visible
04 Jun 8.8 01:49:37 29° ENE 01:49:37 29° ENE 01:52:16 10° NE visible
04 Jun 8.9 03:26:55 19° WNW 03:28:10 21° NW 03:31:40 10° N visible
05 Jun 8.0 02:09:05 50° NNE 02:09:05 50° NNE 02:12:35 10° NNE visible
05 Jun 9.7 03:48:05 10° NW 03:48:48 10° NW 03:49:17 10° NW visible
